• MPC Preparation (Info)

  • MPEC 2016-P81 : 2016 PS26

    The following Minor Planet Electronic Circular may be linked-to from your own Web pages, but must not otherwise be redistributed electronically.

    A form allowing access to any MPEC is at the bottom of this page.


    Read MPEC 2016-P80 Read MPEC 2016-P82


    M.P.E.C. 2016-P81                                Issued 2016 Aug. 10, 19:18 UT
    
         The Minor Planet Electronic Circulars contain information on unusual
             minor planets and routine data on comets.  They are published
        on behalf of Division F of the International Astronomical Union by the
              Minor Planet Center, Smithsonian Astrophysical Observatory,
                              Cambridge, MA 02138, U.S.A.
    
                 Prepared using the Tamkin Foundation Computer Network
    
                                  MPC@CFA.HARVARD.EDU
                URL https://www.minorplanetcenter.net/    ISSN 1523-6714
    
                                       2016 PS26
    
    Observations:
         K16P26S* C2016 08 08.37271 20 11 14.211-02 04 09.90         21.8 wLEP081F51
         K16P26S  C2016 08 08.38443 20 11 13.956-02 03 28.22         22.2 wLEP081F51
         K16P26S  C2016 08 08.39618 20 11 13.667-02 02 46.53         22.2 wLEP081F51
         K16P26S KC2016 08 09.19142720 11 18.10 -01 13 57.5          22.4 VuEP081H21
         K16P26S KC2016 08 09.20745220 11 17.81 -01 12 55.5          22.1 VuEP081H21
         K16P26S KC2016 08 09.21962220 11 17.57 -01 12 08.5          22.2 VuEP081H21
         K16P26S KC2016 08 10.14624420 11 26.92 -00 09 06.9          22.0 VuEP081H21
         K16P26S KC2016 08 10.16187 20 11 28.46 -00 07 51.5                oEP081291
         K16P26S KC2016 08 10.16715 20 11 28.37 -00 07 28.5                oEP081291
         K16P26S KC2016 08 10.17067920 11 26.56 -00 07 22.0          21.9 VuEP081H21
         K16P26S KC2016 08 10.17910220 11 26.43 -00 06 45.8          22.1 VuEP081H21
    
    Observer details:
    291 LPL/Spacewatch II.  Observer A. F. Tubbiolo.  1.8-m f/2.7 reflector + CCD.
    F51 Pan-STARRS 1, Haleakala.  Observers B. Gibson, T. Goggia, N. Primak,
        A. Schultz, M. Willman.  Measurers K. Chambers, S. Chastel, L. Denneau,
        H. Flewelling, M. Huber, E. Lilly, E. Magnier, R. Wainscoat, C. Waters,
        R. Weryk.  1.8-m Ritchey-Chretien + CCD.
    H21 Astronomical Research Observatory, Westfield.  Observer R. Holmes.
        Measurers S. Foglia, L. Buzzi, T. Linder, R. Holmes.  1.3-m f/4.0
        astrograph + CCD.
    
    Orbital elements:
    2016 PS26                                                Earth MOID = 0.0063 AU
    Epoch 2016 July 31.0 TT = JDT 2457600.5                 MPC
    M 346.72254              (2000.0)            P               Q
    n   0.24090236     Peri.  135.34402     +0.97642351     -0.21400465
    a   2.5580479      Node   237.03300     +0.18743539     +0.90549061
    e   0.6378661      Incl.    1.93092     +0.10707525     +0.36645432
    P   4.09           H   25.4           G   0.15           U   7
    Residuals in seconds of arc
    160808 F51  0.2-  0.0     160809 H21  0.1+  0.1+    160810 291  0.1-  0.2+
    160808 F51  0.2+  0.1+    160809 H21  0.2-  0.1-    160810 H21  0.1-  0.1-
    160808 F51  0.1+  0.0     160810 H21  0.1-  0.1+    160810 H21  0.1-  0.2-
    160809 H21  0.2+  0.1+    160810 291  0.2+  0.1-
    
    Ephemeris:
    2016 PS26                a,e,i = 2.56, 0.64, 2                   q = 0.9264
    Date    TT    R. A. (2000) Decl.     Delta      r     Elong.  Phase     V
    2016 07 11    20 13 08.3 -13 41 59   0.3576  1.3655   165.2    11.0    24.5
    ...
    2016 07 26    20 12 25.7 -09 55 02   0.2238  1.2367   170.2     8.0    23.2
    ...
    2016 08 03    20 11 23.9 -06 12 58   0.1619  1.1717   164.8    13.2    22.6
    ...
    2016 08 09    20 11 16.6 -01 25 25   0.1192  1.1256   158.4    19.3    22.0
    2016 08 10    20 11 24.2 -00 18 43   0.1124  1.1182   157.2    20.6    21.9
    2016 08 11    20 11 35.5 +00 55 53   0.1057  1.1108   155.9    21.9    21.8
    ...
    2016 08 17    20 15 04.0 +13 05 11   0.06780 1.0687   145.1    32.8    21.1
    ...
    2016 08 25    21 01 43.8 +66 00 55   0.03588 1.0188   102.0    76.0    20.9
    ...
    2016 09 09    07 54 01.6 +37 18 41   0.1046  0.9509    54.9   119.9    25.2
    
    A. U. Tomatic                (C) Copyright 2016 MPC           M.P.E.C. 2016-P81
    

    Read MPEC 2016-P80 Read MPEC 2016-P82


    MPEC number:

    Enter an MPEC number in one of the following forms:

    • 1997-B01 (the full form)
    • J97B01 (the packed version of the full form)
    • B01 (the abbreviated form)